Home > Weather > Winder > Past weeks

Flag for U.S.A. Weather for the Past 2 Weeks in Winder, Georgia, U.S.A.

Now
48 °F

Cloudy.


Feels Like: 43 °F
Forecast: 38 / 52 °F
Wind: 14 mph from West

Location: Winder-Barrow Airport

Current Time: Feb 8, 2016 at 12:15:56 PM

Latest Report: Feb 8, 2016 at 11:35 AM


Visibility: 10 mi

Pressure: 29.83 "Hg

Humidity: 50%

Dew point: 30 °F

Location of WinderLocation

Historic Weather in Winder — Graph

°F

Winder Temperature Yesterday

Maximum temperature yesterday: 57 °F (at 2:55 PM)
Minimum temperature yesterday: 32 °F (at 3:35 AM)
Average temperature yesterday: 44 °F

High & Low Weather Summary for the Past Weeks

 TemperatureHumidityPressure
High72 °F (Feb 2, 1:55 PM)94% (Jan 26, 9:15 PM)30.43 "Hg (Jan 26, 9:15 PM)
Low30 °F (Jan 25, 6:15 AM)15% (Feb 5, 3:55 PM)29.83 "Hg (Feb 8, 10:15 AM)
Average49 °F61%30.11 "Hg
* Reported Jan 24 11:15 AM — Feb 8 11:15 AM, Winder, Weather by CustomWeather, © 2016

Note: Actual official high and low records may vary slightly from our data, if they occured in-between our weather recording intervals... More about our weather records

Advertising

Winder Weather History for the Previous 24 Hours

 ConditionsComfort  
Time TempWeatherWind HumidityBarometerVisibility
11:15 AM
Mon, Feb 8
50 °FMore clouds than sun.14 mph50%29.84 "Hg10 mi
10:55 AM48 °FMore clouds than sun.10 mph50%29.84 "Hg10 mi
10:35 AM48 °FOvercast.17 mph46%29.85 "Hg10 mi
10:15 AM45 °FOvercast.8 mph53%29.83 "Hg10 mi
9:55 AM45 °FPartly sunny.6 mph53%29.85 "Hg10 mi
9:35 AM43 °FPartly sunny.7 mph53%29.85 "Hg10 mi
9:15 AM41 °FScattered clouds.No wind57%29.85 "Hg10 mi
8:55 AM41 °FSunny.No wind53%29.84 "Hg10 mi
8:35 AM39 °FScattered clouds.No wind52%29.86 "Hg10 mi
8:15 AM37 °FPartly sunny.No wind56%29.85 "Hg10 mi
7:55 AM37 °FScattered clouds.5 mph56%29.86 "Hg10 mi
7:35 AM37 °FSunny.3 mph56%29.87 "Hg10 mi
7:15 AM37 °FClear.3 mph56%29.86 "Hg10 mi
6:55 AM37 °FClear.6 mph56%29.86 "Hg10 mi
6:35 AM37 °FPassing clouds.5 mph56%29.86 "Hg10 mi
6:15 AM32 °FClear.No wind80%29.86 "Hg10 mi
5:55 AM37 °FClear.No wind56%29.87 "Hg10 mi
5:35 AM37 °FClear.No wind56%29.87 "Hg10 mi
5:15 AM37 °FClear.No wind56%29.87 "Hg10 mi
4:55 AM37 °FClear.No wind56%29.89 "Hg10 mi
4:35 AM37 °FClear.No wind56%29.90 "Hg10 mi
4:15 AM37 °FClear.No wind56%29.91 "Hg10 mi
3:55 AM37 °FClear.No wind56%29.91 "Hg10 mi
3:35 AM39 °FClear.No wind52%29.92 "Hg10 mi
3:15 AM39 °FClear.No wind52%29.93 "Hg10 mi
2:55 AM41 °FClear.3 mph49%29.94 "Hg10 mi
2:35 AM41 °FClear.7 mph49%29.95 "Hg10 mi
2:15 AM41 °FClear.No wind49%29.95 "Hg10 mi
1:55 AM41 °FClear.5 mph49%29.96 "Hg10 mi
1:35 AM41 °FClear.No wind49%29.96 "Hg10 mi
1:15 AM41 °FClear.No wind49%29.97 "Hg10 mi
12:55 AM41 °FClear.No wind45%29.98 "Hg10 mi
12:35 AM41 °FClear.No wind45%29.98 "Hg10 mi
12:15 AM43 °FClear.No wind42%29.98 "Hg10 mi
11:55 PM
Sun, Feb 7
43 °FClear.No wind42%29.98 "Hg10 mi
11:15 PM43 °FClear.No wind42%29.98 "Hg10 mi
10:15 PM45 °FClear.No wind39%29.99 "Hg10 mi
9:55 PM45 °FClear.No wind39%29.98 "Hg10 mi
9:15 PM45 °FClear.No wind39%29.99 "Hg10 mi
8:55 PM45 °FClear.No wind37%29.98 "Hg10 mi
8:15 PM46 °FClear.No wind34%29.99 "Hg10 mi
7:55 PM48 °FClear.3 mph32%29.99 "Hg10 mi
7:15 PM50 °FClear.9 mph28%30.00 "Hg10 mi
6:55 PM52 °FClear.9 mph26%29.99 "Hg10 mi
6:15 PM52 °FClear.No wind28%29.98 "Hg10 mi
5:55 PM54 °FSunny.3 mph24%29.98 "Hg10 mi
5:35 PM55 °FSunny.8 mph23%29.98 "Hg10 mi
5:15 PM55 °FSunny.5 mph21%29.98 "Hg10 mi
4:55 PM55 °FSunny.No wind21%29.99 "Hg10 mi
4:35 PM57 °FSunny.6 mph20%29.99 "Hg10 mi
4:15 PM55 °FSunny.No wind19%29.99 "Hg10 mi
3:55 PM57 °FSunny.No wind18%29.99 "Hg10 mi
3:35 PM55 °FSunny.No wind19%30.00 "Hg10 mi
3:15 PM57 °FSunny.7 mph20%30.01 "Hg10 mi
2:55 PM57 °FSunny.7 mph21%30.03 "Hg10 mi
2:35 PM55 °FSunny.No wind23%30.03 "Hg10 mi
2:15 PM55 °FSunny.7 mph21%30.04 "Hg10 mi
1:55 PM55 °FSunny.5 mph23%30.06 "Hg10 mi
1:35 PM55 °FSunny.No wind23%30.07 "Hg10 mi
1:15 PM54 °FSunny.No wind24%30.08 "Hg10 mi
12:55 PM54 °FSunny.No wind24%30.10 "Hg10 mi
12:35 PM54 °FSunny.8 mph26%30.13 "Hg10 mi
12:15 PM54 °FSunny.7 mph26%30.13 "Hg10 mi
Weather by CustomWeather, © 2016

See weather overviewHow to use our weather pages